Regional Weather Roundup
Issued by NWS

Home | Current Version | Previous Version | Graphics & Text | Print | Product List | Glossary Off
Versions: 1 2 3 4 5 6 7 8 9 10 11 12 13 14 15 16 17 18 19 20 21 22 23 24 25 26 27 28 29 30 31 32 33 34 35 36 37 38 39 40 41 42 43 44 45 46 47 48 49 50

418
ASUS43 KTOP 210508
RWRKS

WEATHER ROUNDUP FOR KANSAS
NATIONAL WEATHER SERVICE GOODLAND KS
1100 PM CST FRI JAN 20 2017

NOTE:  "FAIR" INDICATES FEW OR NO CLOUDS BELOW 12,000 FEET WITH NO
SIGNIFICANT WEATHER AND/OR OBSTRUCTIONS TO VISIBILITY.

KSZ001>006-013>018-027>032-041>047-210600-
NORTHWEST KANSAS

CITY           SKY/WX    TMP DP  RH WIND       PRES   REMARKS
GOODLAND       CLEAR     32  31  96 W10       29.46R WCI  24
HAYS           CLEAR     35  33  92 W7        29.46R
HILL CITY      CLOUDY    39  38  96 SW6       29.43S
RUSSELL        CLOUDY    38  36  92 SW9       29.43R
$$

KSZ061>065-074>080-084>089-210600-
SOUTHWEST KANSAS

CITY           SKY/WX    TMP DP  RH WIND       PRES   REMARKS
DODGE CITY     CLEAR     35  33  92 W9        29.49S
ELKHART          N/A     32  24  72 SW10        N/A  WCI  24
GARDEN CITY    CLEAR     30  28  92 W5        29.48S
GREAT BEND     CLEAR     38  36  92 W9        29.47R
LIBERAL        CLEAR     28  23  80 SW9       29.53S
PRATT          CLEAR     34  32  92 W10       29.48S WCI  26
$$

KSZ066>073-081>083-090>101-210600-
SOUTHEAST KANSAS

CITY           SKY/WX    TMP DP  RH WIND       PRES   REMARKS
CHANUTE        PTCLDY    39  37  92 SE8       29.46F
COFFEYVILLE    CLEAR     52  37  56 S13       29.48S
HUTCHINSON     CLOUDY    40  38  93 SW12      29.46R FOG     WCI  33
MEDICINE LODGE   N/A     37  34  89 SW5       29.50R
NEWTON         MOCLDY    39  39 100 SW9       29.46R FOG
PARSONS        CLEAR     46  37  71 S3        29.47F
WICHITA INTL   MOCLDY    36  35  96 W8        29.47R FOG
WICHITA JABRA  CLEAR     38  38 100 SW8       29.46R
WICHITA MCCONL CLEAR     39  39 100 W8        29.47R
WINFIELD       CLEAR     45  37  73 SW15      29.48R
$$

KSZ007>012-019>026-033>040-048>060-102>105-210600-
NORTHEAST KANSAS

CITY           SKY/WX    TMP DP  RH WIND       PRES   REMARKS
CONCORDIA      FOG       42  42 100 SW6       29.42R VSB 1/2
EMPORIA        FOG       36  36 100 SE6       29.43S VSB 1
LAWRENCE       PTCLDY    38  38 100 SE6       29.45R FOG
MANHATTAN      CLEAR     43  41  93 SW6       29.43R
MARYSVILLE     CLOUDY    43  43 100 SW3       29.42R FOG
OLATHE IND     CLOUDY    44  43  96 SE9       29.44F
OLATHE EXE     CLOUDY    43  43 100 S5        29.44F
SALINA         LGT RAIN  43  41  93 W7        29.45R FOG
TOPEKA BILLARD FOG       40  38  93 SE3       29.43R VSB 1/4
TOPEKA FORBES  PTCLDY    40  37  89 SE6       29.44R FOG
$$




USA.gov is the U.S. government's official web portal to all federal, state and local government web resources and services.